Location: Vancouver
(49.2500°N, 123.1330°W)
Time: 05:35:44
(UTC-07:00)

ERS-2 - Visible Passes

Search period start: 24 April 2018 00:00
Search period end: 04 May 2018 00:00
Orbit: 499 x 503 km, 98.5° (Epoch: 23 April)

Date Brightness Start Highest point End Pass type
(mag) Time Alt. Az. Time Alt. Az. Time Alt. Az.
24 Apr 2.7 20:49:24 10° S 20:53:02 61° WSW 20:56:42 10° NNW visible
26 Apr 4.9 21:45:51 10° SW 21:48:11 16° W 21:50:32 10° NW visible
27 Apr 4.3 21:25:31 10° SSW 21:28:37 25° W 21:31:46 10° NW visible
28 Apr 3.4 21:05:37 10° S 21:09:07 42° W 21:12:40 10° NNW visible
30 Apr 5.2 22:03:03 10° WSW 22:04:21 11° W 22:05:39 10° WNW visible
01 May 4.8 21:42:06 10° SW 21:44:44 19° W 21:47:24 10° NW visible
02 May 4.0 21:21:55 10° SSW 21:25:11 30° W 21:28:29 10° NW visible
03 May 3.1 21:02:07 10° S 21:05:41 50° WSW 21:09:18 10° NNW visible
